| time (UTC) | temp F | wind direction | speed MPH | gust MPH | rain 1hr in | rain 24hr in | rain mn in | humidity % | barometer mb |
| 20260505152836 | 74 | 244 | 0.0 | 6.0 | 0.00 | 0.00 | 0.00 | 55 | 1016.7 |
| 20260505152337 | 73 | 287 | 2.0 | 6.0 | 0.00 | 0.00 | 0.00 | 56 | 1016.6 |
| 20260505151837 | 73 | 241 | 1.0 | 4.0 | 0.00 | 0.00 | 0.00 | 56 | 1016.7 |
| 20260505151336 | 73 | 123 | 1.0 | 4.0 | 0.00 | 0.00 | 0.00 | 57 | 1016.9 |
| 20260505150838 | 72 | 290 | 2.0 | 6.0 | 0.00 | 0.00 | 0.00 | 58 | 1016.9 |
| 20260505150336 | 72 | 254 | 1.0 | 6.0 | 0.00 | 0.00 | 0.00 | 58 | 1017.3 |
| 20260505140553 | 68 | 246 | 4.0 | 9.0 | 0.00 | 0.00 | 0.00 | 65 | 1016.8 |
| 20260505124836 | 63 | 254 | 5.0 | 9.0 | 0.00 | 0.00 | 0.00 | 72 | 1016.9 |
| 20260505124336 | 62 | 269 | 4.0 | 9.0 | 0.00 | 0.00 | 0.00 | 72 | 1016.9 |
| 20260505123836 | 62 | 275 | 2.0 | 8.0 | 0.00 | 0.00 | 0.00 | 72 | 1016.9 |
| 20260505123556 | 61 | 251 | 3.0 | 8.0 | 0.00 | 0.00 | 0.00 | 73 | 1016.9 |
| 20260505122836 | 61 | 205 | 1.0 | 7.0 | 0.00 | 0.00 | 0.00 | 73 | 1017.0 |
| 20260505122337 | 61 | 267 | 0.0 | 6.0 | 0.00 | 0.00 | 0.00 | 74 | 1016.9 |
| 20260505121836 | 60 | 266 | 0.0 | 6.0 | 0.00 | 0.00 | 0.00 | 74 | 1016.9 |
| 20260505121336 | 60 | 250 | 2.0 | 6.0 | 0.00 | 0.00 | 0.00 | 74 | 1017.0 |
| 20260505120836 | 60 | 258 | 0.0 | 6.0 | 0.00 | 0.00 | 0.00 | 74 | 1016.8 |
| 20260505120336 | 59 | 252 | 0.0 | 3.0 | 0.00 | 0.00 | 0.00 | 75 | 1016.8 |
| 20260505115836 | 59 | 236 | 2.0 | 3.0 | 0.00 | 0.00 | 0.00 | 75 | 1016.8 |
| 20260505115336 | 59 | 277 | 2.0 | 3.0 | 0.00 | 0.00 | 0.00 | 75 | 1016.7 |
| 20260505114836 | 58 | 268 | 1.0 | 3.0 | 0.00 | 0.00 | 0.00 | 76 | 1016.8 |
| 20260505114336 | 58 | 225 | 0.0 | 3.0 | 0.00 | 0.00 | 0.00 | 76 | 1016.7 |
| 20260505113836 | 58 | 256 | 1.0 | 3.0 | 0.00 | 0.00 | 0.00 | 76 | 1016.9 |
| 20260505113336 | 57 | 250 | 1.0 | 2.0 | 0.00 | 0.00 | 0.00 | 76 | 1016.8 |
| 20260505112836 | 57 | 232 | 0.0 | 2.0 | 0.00 | 0.00 | 0.00 | 76 | 1016.5 |
| 20260505112336 | 57 | 232 | 0.0 | 1.0 | 0.00 | 0.00 | 0.00 | 76 | 1016.6 |
| 20260505111836 | 57 | 232 | 0.0 | 1.0 | 0.00 | 0.00 | 0.00 | 76 | 1016.5 |
| 20260505111336 | 57 | 232 | 0.0 | 1.0 | 0.00 | 0.00 | 0.00 | 76 | 1016.2 |
| 20260505110836 | 56 | 232 | 0.0 | 1.0 | 0.00 | 0.00 | 0.00 | 75 | 1016.3 |
| 20260505110336 | 56 | 232 | 1.0 | 2.0 | 0.00 | 0.00 | 0.00 | 75 | 1016.3 |
| 20260505102101 | 56 | 263 | 1.0 | 2.0 | 0.00 | 0.00 | 0.00 | 75 | 1015.8 |
| 20260505101336 | 56 | 263 | 1.0 | 2.0 | 0.00 | 0.00 | 0.00 | 75 | 1015.8 |
| 20260505100837 | 56 | 239 | 1.0 | 2.0 | 0.00 | 0.00 | 0.00 | 75 | 1015.6 |
| 20260505100336 | 56 | 233 | 0.0 | 2.0 | 0.00 | 0.00 | 0.00 | 75 | 1015.8 |
| 20260505095336 | 56 | 211 | 0.0 | 1.0 | 0.00 | 0.00 | 0.00 | 76 | 1015.8 |
| 20260505094836 | 56 | 210 | 0.0 | 2.0 | 0.00 | 0.00 | 0.00 | 75 | 1015.4 |
| 20260505094336 | 56 | 210 | 0.0 | 4.0 | 0.00 | 0.00 | 0.00 | 75 | 1015.5 |
| 20260505094102 | 56 | 215 | 2.0 | 4.0 | 0.00 | 0.00 | 0.00 | 75 | 1015.7 |
| 20260505093340 | 56 | 184 | 0.0 | 2.0 | 0.00 | 0.00 | 0.00 | 75 | 1015.6 |
| 20260505092836 | 56 | 235 | 0.0 | 1.0 | 0.00 | 0.00 | 0.00 | 75 | 1015.5 |
| 20260505092336 | 56 | 235 | 0.0 | 1.0 | 0.00 | 0.00 | 0.00 | 75 | 1015.4 |
| 20260505091836 | 56 | 257 | 0.0 | 0.0 | 0.00 | 0.00 | 0.00 | 74 | 1015.4 |
| 20260505091337 | 56 | 257 | 0.0 | 0.0 | 0.00 | 0.00 | 0.00 | 74 | 1015.3 |
| 20260505090836 | 56 | 257 | 0.0 | 0.0 | 0.00 | 0.00 | 0.00 | 74 | 1015.4 |
| 20260505090336 | 56 | 257 | 0.0 | 0.0 | 0.00 | 0.00 | 0.00 | 74 | 1015.4 |
| 20260505085836 | 56 | 257 | 0.0 | 0.0 | 0.00 | 0.00 | 0.00 | 74 | 1015.4 |
| 20260505085557 | 56 | 257 | 0.0 | 0.0 | 0.00 | 0.00 | 0.00 | 73 | 1015.5 |
| 20260505084836 | 57 | 257 | 0.0 | 0.0 | 0.00 | 0.00 | 0.00 | 73 | 1015.2 |
| 20260505084336 | 57 | 257 | 0.0 | 0.0 | 0.00 | 0.00 | 0.00 | 73 | 1015.3 |
| 20260505083836 | 57 | 257 | 0.0 | 0.0 | 0.00 | 0.00 | 0.00 | 73 | 1015.3 |
| 20260505083336 | 57 | 257 | 0.0 | 0.0 | 0.00 | 0.00 | 0.00 | 72 | 1015.3 |
| 20260505083055 | 57 | 257 | 0.0 | 0.0 | 0.00 | 0.00 | 0.00 | 72 | 1015.4 |
| 20260505082336 | 57 | 257 | 0.0 | 0.0 | 0.00 | 0.00 | 0.00 | 71 | 1015.4 |
| 20260505081836 | 58 | 257 | 0.0 | 0.0 | 0.00 | 0.00 | 0.00 | 71 | 1015.3 |
| 20260505080836 | 58 | 257 | 0.0 | 0.0 | 0.00 | 0.00 | 0.00 | 72 | 1015.2 |
| 20260505080336 | 58 | 257 | 0.0 | 0.0 | 0.00 | 0.00 | 0.00 | 71 | 1015.2 |
| 20260505080057 | 58 | 257 | 0.0 | 0.0 | 0.00 | 0.00 | 0.00 | 71 | 1015.1 |
| 20260505075336 | 58 | 257 | 0.0 | 0.0 | 0.00 | 0.00 | 0.00 | 71 | 1015.1 |
| 20260505075043 | 58 | 256 | 0.0 | 0.0 | 0.00 | 0.00 | 0.00 | 71 | 1015.1 |
| 20260505074323 | 58 | 256 | 0.0 | 0.0 | 0.00 | 0.00 | 0.00 | 71 | 1015.2 |
| 20260505073823 | 58 | 256 | 0.0 | 0.0 | 0.00 | 0.00 | 0.00 | 71 | 1015.1 |
| 20260505073323 | 58 | 256 | 0.0 | 0.0 | 0.00 | 0.00 | 0.00 | 70 | 1015.0 |
| 20260505072823 | 59 | 257 | 0.0 | 0.0 | 0.00 | 0.00 | 0.00 | 70 | 1014.9 |
| 20260505072322 | 59 | 257 | 0.0 | 0.0 | 0.00 | 0.00 | 0.00 | 69 | 1015.0 |
| 20260505071823 | 59 | 257 | 0.0 | 0.0 | 0.00 | 0.00 | 0.00 | 69 | 1015.0 |
| 20260505071323 | 59 | 257 | 0.0 | 0.0 | 0.00 | 0.00 | 0.00 | 69 | 1014.9 |
| 20260505070822 | 59 | 257 | 0.0 | 0.0 | 0.00 | 0.00 | 0.00 | 68 | 1014.8 |
| 20260505070322 | 59 | 257 | 0.0 | 0.0 | 0.00 | 0.00 | 0.00 | 68 | 1014.8 |
| 20260505065822 | 60 | 257 | 0.0 | 0.0 | 0.00 | 0.00 | 0.00 | 68 | 1014.9 |
| 20260505065541 | 60 | 257 | 0.0 | 0.0 | 0.00 | 0.00 | 0.00 | 68 | 1014.9 |
| 20260505064823 | 60 | 257 | 0.0 | 0.0 | 0.00 | 0.00 | 0.00 | 67 | 1015.1 |
| 20260505064323 | 60 | 257 | 0.0 | 0.0 | 0.00 | 0.00 | 0.00 | 68 | 1014.9 |
| 20260505064041 | 60 | 257 | 0.0 | 0.0 | 0.00 | 0.00 | 0.00 | 67 | 1014.9 |
| 20260505063547 | 60 | 295 | 0.0 | 1.0 | 0.00 | 0.00 | 0.00 | 67 | 1014.9 |
| 20260505062823 | 61 | 295 | 0.0 | 1.0 | 0.00 | 0.00 | 0.00 | 67 | 1014.8 |
| 20260505062323 | 61 | 296 | 0.0 | 1.0 | 0.00 | 0.00 | 0.00 | 67 | 1014.9 |
| 20260505061823 | 61 | 296 | 0.0 | 1.0 | 0.00 | 0.00 | 0.00 | 67 | 1015.0 |
| 20260505061323 | 61 | 296 | 0.0 | 1.0 | 0.00 | 0.00 | 0.00 | 66 | 1015.0 |
| 20260505060823 | 61 | 296 | 0.0 | 2.0 | 0.00 | 0.00 | 0.00 | 66 | 1014.9 |
| 20260505060323 | 61 | 296 | 1.0 | 2.0 | 0.00 | 0.00 | 0.00 | 66 | 1014.9 |
| 20260505055823 | 62 | 297 | 0.0 | 2.0 | 0.00 | 0.00 | 0.00 | 65 | 1015.0 |
| 20260505055323 | 62 | 297 | 0.0 | 3.0 | 0.00 | 0.00 | 0.00 | 66 | 1014.9 |
| 20260505054823 | 62 | 326 | 0.0 | 3.0 | 0.00 | 0.00 | 0.00 | 66 | 1014.8 |
| 20260505054322 | 62 | 270 | 0.0 | 1.0 | 0.00 | 0.00 | 0.00 | 66 | 1014.9 |
| 20260505053823 | 62 | 270 | 0.0 | 1.0 | 0.00 | 0.00 | 0.00 | 66 | 1015.0 |
| 20260505053323 | 62 | 255 | 0.0 | 1.0 | 0.00 | 0.00 | 0.00 | 65 | 1015.0 |
| 20260505052823 | 62 | 11 | 0.0 | 1.0 | 0.00 | 0.00 | 0.00 | 65 | 1015.3 |
| 20260505052323 | 62 | 78 | 0.0 | 1.0 | 0.00 | 0.00 | 0.00 | 65 | 1015.0 |
| 20260505051823 | 62 | 66 | 0.0 | 3.0 | 0.00 | 0.00 | 0.00 | 65 | 1015.0 |
| 20260505051541 | 63 | 49 | 0.0 | 3.0 | 0.00 | 0.00 | 0.00 | 64 | 1015.2 |
| 20260505050822 | 63 | 188 | 0.0 | 2.0 | 0.00 | 0.00 | 0.00 | 64 | 1015.1 |
| 20260505050322 | 63 | 212 | 0.0 | 2.0 | 0.00 | 0.00 | 0.00 | 64 | 1015.0 |
| 20260505041322 | 64 | 162 | 0.0 | 3.0 | 0.00 | 0.00 | 0.00 | 61 | 1014.9 |
| 20260505040822 | 64 | 238 | 1.0 | 3.0 | 0.00 | 0.00 | 0.00 | 62 | 1015.0 |
| 20260505040322 | 65 | 47 | 0.0 | 3.0 | 0.00 | 0.00 | 0.00 | 61 | 1015.0 |
| 20260505035823 | 65 | 301 | 1.0 | 3.0 | 0.00 | 0.00 | 0.00 | 61 | 1014.9 |
| 20260505035323 | 65 | 157 | 1.0 | 7.0 | 0.00 | 0.00 | 0.00 | 61 | 1015.0 |
| 20260505034822 | 65 | 277 | 1.0 | 7.0 | 0.00 | 0.00 | 0.00 | 61 | 1015.0 |
| 20260505034322 | 65 | 91 | 0.0 | 3.0 | 0.00 | 0.00 | 0.00 | 61 | 1014.9 |
| 20260505033823 | 65 | 328 | 0.0 | 4.0 | 0.00 | 0.00 | 0.00 | 60 | 1014.8 |
| 20260505033323 | 65 | 121 | 1.0 | 4.0 | 0.00 | 0.00 | 0.00 | 61 | 1014.9 |
| 20260505032823 | 66 | 286 | 1.0 | 3.0 | 0.00 | 0.00 | 0.00 | 60 | 1015.0 |
| 20260505032323 | 66 | 219 | 0.0 | 3.0 | 0.00 | 0.00 | 0.00 | 60 | 1015.0 |
| 20260505031822 | 66 | 93 | 1.0 | 3.0 | 0.00 | 0.00 | 0.00 | 60 | 1015.1 |
| 20260505031549 | 66 | 134 | 1.0 | 3.0 | 0.00 | 0.00 | 0.00 | 60 | 1015.1 |
| 20260505030823 | 66 | 119 | 1.0 | 3.0 | 0.00 | 0.00 | 0.00 | 59 | 1014.7 |
| 20260505030323 | 67 | 306 | 0.0 | 3.0 | 0.00 | 0.00 | 0.00 | 60 | 1014.8 |
| 20260505025824 | 67 | 145 | 0.0 | 3.0 | 0.00 | 0.00 | 0.00 | 59 | 1014.9 |
| 20260505025311 | 67 | 342 | 1.0 | 2.0 | 0.00 | 0.00 | 0.00 | 59 | 1014.8 |
| 20260505024811 | 67 | 104 | 0.0 | 2.0 | 0.00 | 0.00 | 0.00 | 59 | 1014.8 |
| 20260505024531 | 67 | 135 | 2.0 | 4.0 | 0.00 | 0.00 | 0.00 | 58 | 1014.9 |
| 20260505023810 | 67 | 215 | 1.0 | 4.0 | 0.00 | 0.00 | 0.00 | 58 | 1014.8 |
| 20260505023311 | 68 | 38 | 0.0 | 4.0 | 0.00 | 0.00 | 0.00 | 57 | 1014.9 |
| 20260505022811 | 68 | 250 | 1.0 | 4.0 | 0.00 | 0.00 | 0.00 | 57 | 1014.8 |
| 20260505022311 | 68 | 70 | 1.0 | 7.0 | 0.00 | 0.00 | 0.00 | 56 | 1014.8 |
| 20260505022033 | 68 | 181 | 1.0 | 7.0 | 0.00 | 0.00 | 0.00 | 55 | 1014.6 |
| 20260505021310 | 69 | 301 | 2.0 | 4.0 | 0.00 | 0.00 | 0.00 | 54 | 1014.6 |
| 20260505020810 | 69 | 124 | 2.0 | 6.0 | 0.00 | 0.00 | 0.00 | 51 | 1014.5 |
| 20260505020311 | 69 | 173 | 1.0 | 6.0 | 0.00 | 0.00 | 0.00 | 51 | 1014.5 |
| 20260505015811 | 69 | 181 | 1.0 | 7.0 | 0.00 | 0.00 | 0.00 | 49 | 1014.4 |
| 20260505015305 | 70 | 319 | 2.0 | 7.0 | 0.00 | 0.00 | 0.00 | 48 | 1014.2 |
| 20260505014758 | 70 | 350 | 2.0 | 4.0 | 0.00 | 0.00 | 0.00 | 47 | 1014.3 |
| 20260505013758 | 70 | 339 | 1.0 | 2.0 | 0.00 | 0.00 | 0.00 | 44 | 1014.2 |
| 20260505013258 | 70 | 339 | 0.0 | 1.0 | 0.00 | 0.00 | 0.00 | 44 | 1014.0 |
| 20260505012758 | 70 | 339 | 0.0 | 1.0 | 0.00 | 0.00 | 0.00 | 43 | 1014.1 |
| 20260505012258 | 71 | 339 | 0.0 | 2.0 | 0.00 | 0.00 | 0.00 | 43 | 1014.1 |
| 20260505011758 | 71 | 339 | 0.0 | 2.0 | 0.00 | 0.00 | 0.00 | 42 | 1013.9 |
| 20260505011258 | 71 | 339 | 0.0 | 2.0 | 0.00 | 0.00 | 0.00 | 42 | 1014.0 |
| 20260505010758 | 71 | 38 | 1.0 | 2.0 | 0.00 | 0.00 | 0.00 | 42 | 1013.9 |
| 20260505010522 | 71 | 38 | 1.0 | 2.0 | 0.00 | 0.00 | 0.00 | 42 | 1013.8 |
| 20260505005759 | 71 | 134 | 0.0 | 2.0 | 0.00 | 0.00 | 0.00 | 41 | 1013.8 |
| 20260505005259 | 72 | 134 | 1.0 | 2.0 | 0.00 | 0.00 | 0.00 | 41 | 1013.7 |
| 20260505004758 | 72 | 86 | 0.0 | 3.0 | 0.00 | 0.00 | 0.00 | 41 | 1013.5 |
| 20260505003759 | 72 | 356 | 0.0 | 2.0 | 0.00 | 0.00 | 0.00 | 40 | 1013.5 |
| 20260505003258 | 72 | 356 | 0.0 | 2.0 | 0.00 | 0.00 | 0.00 | 40 | 1013.4 |
| 20260505003020 | 73 | 108 | 0.0 | 1.0 | 0.00 | 0.00 | 0.00 | 40 | 1013.2 |
| 20260505002247 | 73 | 108 | 0.0 | 2.0 | 0.00 | 0.00 | 0.00 | 39 | 1013.3 |
| 20260505001747 | 73 | 107 | 0.0 | 2.0 | 0.00 | 0.00 | 0.00 | 39 | 1013.2 |
| 20260505001247 | 73 | 329 | 0.0 | 2.0 | 0.00 | 0.00 | 0.00 | 38 | 1013.2 |
| 20260505000747 | 74 | 330 | 0.0 | 6.0 | 0.00 | 0.00 | 0.00 | 38 | 1013.3 |
| 20260505000246 | 74 | 249 | 0.0 | 6.0 | 0.00 | 0.00 | 0.00 | 38 | 1013.2 |
| 20260504235746 | 74 | 192 | 0.0 | 3.0 | 0.00 | 0.00 | 0.00 | 38 | 1013.2 |
| 20260504235246 | 75 | 284 | 2.0 | 3.0 | 0.00 | 0.00 | 0.00 | 37 | 1013.0 |
| 20260504234746 | 75 | 103 | 2.0 | 3.0 | 0.00 | 0.00 | 0.00 | 37 | 1013.0 |
| 20260504234247 | 75 | 231 | 1.0 | 3.0 | 0.00 | 0.00 | 0.00 | 36 | 1013.0 |
| 20260504233746 | 75 | 320 | 0.0 | 3.0 | 0.00 | 0.00 | 0.00 | 36 | 1012.9 |
| 20260504233247 | 76 | 258 | 1.0 | 3.0 | 0.00 | 0.00 | 0.00 | 35 | 1012.9 |
| 20260504232746 | 76 | 252 | 0.0 | 4.0 | 0.00 | 0.00 | 0.00 | 35 | 1012.8 |
| 20260504232247 | 76 | 329 | 0.0 | 4.0 | 0.00 | 0.00 | 0.00 | 34 | 1012.8 |
| 20260504231747 | 76 | 274 | 0.0 | 2.0 | 0.00 | 0.00 | 0.00 | 34 | 1012.8 |
| 20260504231247 | 76 | 275 | 0.0 | 6.0 | 0.00 | 0.00 | 0.00 | 34 | 1012.6 |
| 20260504230747 | 76 | 266 | 4.0 | 6.0 | 0.00 | 0.00 | 0.00 | 34 | 1012.7 |
| 20260504230247 | 77 | 253 | 2.0 | 6.0 | 0.00 | 0.00 | 0.00 | 34 | 1012.7 |
| 20260504230014 | 77 | 280 | 2.0 | 4.0 | 0.00 | 0.00 | 0.00 | 33 | 1012.6 |
| 20260504225247 | 77 | 252 | 2.0 | 4.0 | 0.00 | 0.00 | 0.00 | 33 | 1012.6 |
| 20260504224747 | 77 | 139 | 1.0 | 2.0 | 0.00 | 0.00 | 0.00 | 33 | 1012.7 |
| 20260504224247 | 77 | 120 | 1.0 | 7.0 | 0.00 | 0.00 | 0.00 | 32 | 1012.8 |
| 20260504223747 | 77 | 162 | 0.0 | 7.0 | 0.00 | 0.00 | 0.00 | 32 | 1012.7 |
| 20260504223246 | 77 | 28 | 1.0 | 6.0 | 0.00 | 0.00 | 0.00 | 31 | 1012.7 |
| 20260504222746 | 78 | 162 | 1.0 | 3.0 | 0.00 | 0.00 | 0.00 | 32 | 1012.8 |
| 20260504222246 | 78 | 238 | 0.0 | 4.0 | 0.00 | 0.00 | 0.00 | 31 | 1012.8 |
| 20260504221746 | 78 | 253 | 1.0 | 4.0 | 0.00 | 0.00 | 0.00 | 32 | 1012.7 |
| 20260504221007 | 78 | 154 | 1.0 | 7.0 | 0.00 | 0.00 | 0.00 | 30 | 1012.8 |
| 20260504220247 | 78 | 324 | 1.0 | 7.0 | 0.00 | 0.00 | 0.00 | 32 | 1013.0 |
| 20260504215747 | 78 | 23 | 0.0 | 7.0 | 0.00 | 0.00 | 0.00 | 32 | 1012.7 |
| 20260504215246 | 78 | 298 | 3.0 | 11.0 | 0.00 | 0.00 | 0.00 | 33 | 1013.0 |
| 20260504214746 | 79 | 226 | 0.0 | 11.0 | 0.00 | 0.00 | 0.00 | 32 | 1012.8 |
| 20260504214246 | 79 | 297 | 4.0 | 9.0 | 0.00 | 0.00 | 0.00 | 32 | 1012.6 |
| 20260504213746 | 79 | 242 | 4.0 | 7.0 | 0.00 | 0.00 | 0.00 | 33 | 1012.8 |
| 20260504213507 | 79 | 1 | 1.0 | 8.0 | 0.00 | 0.00 | 0.00 | 33 | 1012.8 |
| 20260504212746 | 79 | 294 | 0.0 | 8.0 | 0.00 | 0.00 | 0.00 | 34 | 1012.8 |
| 20260504212246 | 78 | 243 | 3.0 | 7.0 | 0.00 | 0.00 | 0.00 | 34 | 1012.9 |
| 20260504211747 | 78 | 183 | 1.0 | 7.0 | 0.00 | 0.00 | 0.00 | 33 | 1012.9 |
| 20260504211247 | 78 | 46 | 2.0 | 6.0 | 0.00 | 0.00 | 0.00 | 32 | 1012.8 |
| 20260504210746 | 79 | 245 | 2.0 | 9.0 | 0.00 | 0.00 | 0.00 | 32 | 1013.0 |
| 20260504210504 | 79 | 42 | 1.0 | 9.0 | 0.00 | 0.00 | 0.00 | 33 | 1012.9 |
| 20260504210010 | 79 | 302 | 4.0 | 7.0 | 0.00 | 0.00 | 0.00 | 34 | 1012.9 |
| 20260504205246 | 78 | 256 | 3.0 | 6.0 | 0.00 | 0.00 | 0.00 | 35 | 1012.8 |
| 20260504204746 | 78 | 260 | 1.0 | 7.0 | 0.00 | 0.00 | 0.00 | 35 | 1013.2 |
| 20260504204246 | 78 | 266 | 4.0 | 9.0 | 0.00 | 0.00 | 0.00 | 34 | 1013.0 |
| 20260504203746 | 78 | 91 | 2.0 | 9.0 | 0.00 | 0.00 | 0.00 | 31 | 1013.0 |
| 20260504203247 | 78 | 227 | 6.0 | 9.0 | 0.00 | 0.00 | 0.00 | 33 | 1013.3 |
| 20260504202747 | 78 | 287 | 4.0 | 7.0 | 0.00 | 0.00 | 0.00 | 34 | 1013.2 |
| 20260504202247 | 79 | 109 | 3.0 | 9.0 | 0.00 | 0.00 | 0.00 | 33 | 1013.1 |
| 20260504201747 | 79 | 12 | 1.0 | 9.0 | 0.00 | 0.00 | 0.00 | 33 | 1013.2 |
| 20260504201247 | 79 | 252 | 2.0 | 11.0 | 0.00 | 0.00 | 0.00 | 34 | 1013.2 |
| 20260504200747 | 79 | 291 | 1.0 | 11.0 | 0.00 | 0.00 | 0.00 | 33 | 1013.4 |
| 20260504200247 | 79 | 283 | 2.0 | 9.0 | 0.00 | 0.00 | 0.00 | 33 | 1013.4 |
| 20260504195747 | 79 | 239 | 2.0 | 10.0 | 0.00 | 0.00 | 0.00 | 35 | 1013.3 |
| 20260504195247 | 78 | 236 | 1.0 | 10.0 | 0.00 | 0.00 | 0.00 | 34 | 1013.5 |
| 20260504194747 | 78 | 281 | 4.0 | 10.0 | 0.00 | 0.00 | 0.00 | 32 | 1013.6 |
| 20260504194246 | 78 | 269 | 6.0 | 7.0 | 0.00 | 0.00 | 0.00 | 34 | 1013.6 |
| 20260504193746 | 78 | 288 | 2.0 | 14.0 | 0.00 | 0.00 | 0.00 | 33 | 1013.7 |
| 20260504193247 | 78 | 257 | 5.0 | 14.0 | 0.00 | 0.00 | 0.00 | 34 | 1013.7 |
| 20260504192747 | 78 | 251 | 4.0 | 10.0 | 0.00 | 0.00 | 0.00 | 34 | 1013.7 |
| 20260504192247 | 78 | 250 | 5.0 | 7.0 | 0.00 | 0.00 | 0.00 | 35 | 1013.8 |
| 20260504191746 | 78 | 100 | 3.0 | 6.0 | 0.00 | 0.00 | 0.00 | 34 | 1013.7 |
| 20260504191246 | 78 | 68 | 4.0 | 8.0 | 0.00 | 0.00 | 0.00 | 34 | 1013.9 |
| 20260504190746 | 78 | 313 | 1.0 | 11.0 | 0.00 | 0.00 | 0.00 | 34 | 1013.9 |
| 20260504190247 | 78 | 233 | 2.0 | 11.0 | 0.00 | 0.00 | 0.00 | 34 | 1014.2 |
| 20260504185507 | 79 | 297 | 5.0 | 13.0 | 0.00 | 0.00 | 0.00 | 35 | 1014.2 |
| 20260504184746 | 79 | 294 | 4.0 | 8.0 | 0.00 | 0.00 | 0.00 | 34 | 1014.3 |
| 20260504184246 | 78 | 298 | 5.0 | 13.0 | 0.00 | 0.00 | 0.00 | 35 | 1014.5 |
| 20260504183746 | 78 | 249 | 6.0 | 13.0 | 0.00 | 0.00 | 0.00 | 33 | 1014.5 |
| 20260504183247 | 78 | 310 | 5.0 | 9.0 | 0.00 | 0.00 | 0.00 | 34 | 1014.2 |
| 20260504182747 | 78 | 221 | 2.0 | 9.0 | 0.00 | 0.00 | 0.00 | 34 | 1014.6 |
| 20260504182247 | 78 | 287 | 4.0 | 9.0 | 0.00 | 0.00 | 0.00 | 35 | 1014.6 |
| 20260504181747 | 78 | 236 | 3.0 | 10.0 | 0.00 | 0.00 | 0.00 | 33 | 1014.7 |
| 20260504181246 | 77 | 295 | 3.0 | 13.0 | 0.00 | 0.00 | 0.00 | 36 | 1014.5 |
| 20260504180747 | 77 | 242 | 3.0 | 13.0 | 0.00 | 0.00 | 0.00 | 36 | 1014.5 |
| 20260504180247 | 76 | 261 | 2.0 | 7.0 | 0.00 | 0.00 | 0.00 | 36 | 1014.7 |
| 20260504180006 | 76 | 283 | 3.0 | 7.0 | 0.00 | 0.00 | 0.00 | 35 | 1014.5 |
| 20260504175247 | 76 | 276 | 3.0 | 7.0 | 0.00 | 0.00 | 0.00 | 36 | 1014.7 |
| 20260504175005 | 76 | 255 | 4.0 | 7.0 | 0.00 | 0.00 | 0.00 | 35 | 1014.9 |
| 20260504174246 | 77 | 284 | 3.0 | 4.0 | 0.00 | 0.00 | 0.00 | 34 | 1014.8 |
| 20260504173746 | 76 | 262 | 2.0 | 8.0 | 0.00 | 0.00 | 0.00 | 38 | 1014.8 |
| 20260504173246 | 76 | 259 | 5.0 | 8.0 | 0.00 | 0.00 | 0.00 | 38 | 1014.8 |
| 20260504173010 | 76 | 274 | 2.0 | 7.0 | 0.00 | 0.00 | 0.00 | 36 | 1015.2 |
| 20260504172247 | 77 | 214 | 4.0 | 7.0 | 0.00 | 0.00 | 0.00 | 35 | 1015.1 |
| 20260504170746 | 76 | 191 | 3.0 | 11.0 | 0.00 | 0.00 | 0.00 | 36 | 1015.5 |
| 20260504170246 | 75 | 247 | 0.0 | 10.0 | 0.00 | 0.00 | 0.00 | 39 | 1015.4 |
| 20260504160247 | 71 | 228 | 1.0 | 6.0 | 0.00 | 0.00 | 0.00 | 45 | 1016.1 |